Weather History for Fort Drum, NY

Change the Weather History Date:

Saturday, September 29, 2012

  Actual Average Record
Temperature  
Mean Temperature 52 °F -  
Max Temperature 59 °F 61 °F 77 °F (2014)
Min Temperature 46 °F 41 °F 24 °F (2000)
Degree Days  
Heating Degree Days 12    
Growing Degree Days 2 (Base 50)    
Moisture  
Dew Point 49 °F    
Average Humidity 94    
Maximum Humidity 100    
Minimum Humidity 67    
Precipitation  
Precipitation 0.00 in - - ()
Sea Level Pressure  
Sea Level Pressure 30.02 in    
Wind  
Wind Speed 5 mph (NE)    
Max Wind Speed 12 mph    
Max Gust Speed -    
Visibility 7 miles    
Events Fog    
Averages and records for this station are not official NWS values.
T = Trace of Precipitation, MM = Missing Value Source: NWS Daily Summary

Daily Weather History Graph

Daily Weather History Graph

Search for Another Location

Airport:

Trip Planner

Search our weather history database for the weather conditions in past years. The results will help you decide how hot, cold, wet, or windy it might be!

Date:

Astronomy

Sep. 29, 2012 Rise Set
Actual Time 6:58 AM EDT 6:46 PM EDT
Civil Twilight 6:29 AM EDT 7:15 PM EDT
Nautical Twilight 5:56 AM EDT 7:48 PM EDT
Astronomical Twilight 5:22 AM EDT 8:22 PM EDT
Moon 6:16 PM EDT (9/29) 6:28 AM EDT (9/29)
Length of Visible Light 12h 45m
Length of Day
11h 47m
Full, 100% of the Moon is Illuminated
Sep 29
Full
Sep 29
Full
Oct 8
Last Quarter
Oct 15
New
Oct 21
First Quarter

Hourly Weather History & Observations

Time (EDT) Temp. Windchill Dew Point Humidity Pressure Visibility Wind Dir Wind Speed Gust Speed Precip Events Conditions
12:55 AM 51.8 °F - 51.8 °F 100% 30.02 in 10.0 mi Calm Calm - N/A   Overcast
1:55 AM 52.3 °F - 52.3 °F 100% 30.02 in 10.0 mi West 3.5 mph - N/A   Overcast
2:55 AM 51.6 °F - 51.6 °F 100% 30.01 in 10.0 mi WNW 3.5 mph - N/A   Overcast
3:55 AM 49.1 °F - 49.1 °F 100% 30.01 in 10.0 mi North 3.5 mph - N/A   Mostly Cloudy
4:55 AM 48.0 °F - 47.7 °F 99% 30.01 in 10.0 mi North 3.5 mph - N/A   Overcast
5:55 AM 46.0 °F - 46.0 °F 100% 30.02 in 10.0 mi Calm Calm - N/A   Mostly Cloudy
6:24 AM 46.4 °F - 46.4 °F 100% 30.02 in 10.0 mi Calm Calm - N/A   Mostly Cloudy
6:38 AM 46.4 °F - 46.4 °F 100% 30.03 in 10.0 mi Calm Calm - N/A   Mostly Cloudy
6:50 AM 46.4 °F - 46.4 °F 100% 30.03 in 10.0 mi Calm Calm - N/A   Overcast
6:55 AM 46.6 °F - 46.6 °F 100% 30.03 in 10.0 mi Calm Calm - N/A   Overcast
7:10 AM 46.4 °F 45.2 °F 46.4 °F 100% 30.03 in 8.0 mi NNE 3.5 mph - N/A   Overcast
7:15 AM 46.4 °F 44.3 °F 46.4 °F 100% 30.03 in 2.0 mi NE 4.6 mph - N/A   Overcast
7:16 AM 46.4 °F 43.5 °F 46.4 °F 100% 30.03 in 1.5 mi NNE 5.8 mph - N/A   Overcast
7:17 AM 46.4 °F 43.5 °F 46.4 °F 100% 30.03 in 1.0 mi NNE 5.8 mph - N/A   Overcast
7:18 AM 46.4 °F 44.3 °F 46.4 °F 100% 30.03 in 0.8 mi NNE 4.6 mph - N/A   Overcast
7:19 AM 46.4 °F 43.5 °F 46.4 °F 100% 30.03 in 0.5 mi NNE 5.8 mph - N/A Fog Fog
7:21 AM 46.4 °F 42.9 °F 46.4 °F 100% 30.03 in 0.2 mi NE 6.9 mph - N/A Fog Fog
7:23 AM 46.4 °F 43.5 °F 46.4 °F 100% 30.03 in 0.2 mi NE 5.8 mph - N/A Fog Fog
7:24 AM 46.4 °F 43.5 °F 46.4 °F 100% 30.03 in 0.2 mi NE 5.8 mph - N/A Fog Fog
7:25 AM 46.4 °F 43.5 °F 46.4 °F 100% 30.03 in 0.2 mi NE 5.8 mph - N/A Fog Fog
7:26 AM 46.4 °F 43.5 °F 46.4 °F 100% 30.03 in 0.2 mi NE 5.8 mph - N/A Fog Fog
7:55 AM 46.6 °F - 46.6 °F 100% 30.03 in 0.2 mi NNE 4.6 mph - N/A Fog Fog
8:17 AM 46.4 °F 42.4 °F 46.4 °F 100% 30.03 in 0.2 mi NNE 8.1 mph - N/A Fog Fog
8:55 AM 47.8 °F - 47.8 °F 100% 30.04 in 0.2 mi NE 6.9 mph - N/A Fog Fog
8:57 AM 48.2 °F - 48.2 °F 100% 30.04 in 0.2 mi NNE 8.1 mph - N/A Fog Fog
9:00 AM 48.2 °F - 48.2 °F 100% 30.04 in 0.5 mi NNE 8.1 mph - N/A Fog Fog
9:03 AM 48.2 °F - 48.2 °F 100% 30.04 in 0.8 mi NNE 6.9 mph - N/A   Mist
9:06 AM 48.2 °F - 48.2 °F 100% 30.04 in 1.0 mi NNE 5.8 mph - N/A   Overcast
9:14 AM 48.2 °F - 48.2 °F 100% 30.04 in 1.2 mi NE 9.2 mph - N/A   Overcast
9:17 AM 48.2 °F - 48.2 °F 100% 30.04 in 1.5 mi NE 11.5 mph - N/A   Overcast
9:19 AM 48.2 °F - 48.2 °F 100% 30.04 in 2.0 mi NE 10.4 mph - N/A   Overcast
9:20 AM 48.2 °F - 48.2 °F 100% 30.04 in 3.0 mi NE 9.2 mph - N/A   Overcast
9:24 AM 48.2 °F - 48.2 °F 100% 30.04 in 5.0 mi NNE 8.1 mph - N/A   Overcast
9:41 AM 48.2 °F - 48.2 °F 100% 30.04 in 2.5 mi NE 6.9 mph - N/A   Overcast
9:44 AM 48.2 °F - 48.2 °F 100% 30.04 in 2.0 mi NE 6.9 mph - N/A   Overcast
9:49 AM 48.2 °F - 48.2 °F 100% 30.04 in 2.5 mi ENE 8.1 mph - N/A   Overcast
9:53 AM 48.2 °F - 48.2 °F 100% 30.04 in 3.0 mi NE 5.8 mph - N/A   Overcast
9:55 AM 48.4 °F - 48.4 °F 100% 30.04 in 3.0 mi NE 8.1 mph - N/A   Overcast
10:19 AM 50.0 °F - 50.0 °F 100% 30.04 in 9.0 mi NE 5.8 mph - N/A   Overcast
10:22 AM 50.0 °F - 50.0 °F 100% 30.04 in 10.0 mi NE 6.9 mph - N/A   Overcast
10:25 AM 50.0 °F - 50.0 °F 100% 30.04 in 10.0 mi NE 5.8 mph - N/A   Overcast
10:26 AM 50.0 °F - 50.0 °F 100% 30.04 in 10.0 mi NE 4.6 mph - N/A   Overcast
10:30 AM 50.0 °F - 50.0 °F 100% 30.04 in 10.0 mi Variable 4.6 mph - N/A   Overcast
10:38 AM 51.8 °F - 51.8 °F 100% 30.04 in 10.0 mi Variable 5.8 mph - N/A   Mostly Cloudy
10:43 AM 51.8 °F - 51.8 °F 100% 30.03 in 10.0 mi NE 9.2 mph - N/A   Mostly Cloudy
10:44 AM 51.8 °F - 51.8 °F 100% 30.03 in 10.0 mi ENE 6.9 mph - N/A   Mostly Cloudy
10:46 AM 51.8 °F - 51.8 °F 100% 30.03 in 10.0 mi ENE 8.1 mph - N/A   Mostly Cloudy
10:48 AM 51.8 °F - 51.8 °F 100% 30.04 in 10.0 mi NE 9.2 mph - N/A   Mostly Cloudy
10:49 AM 51.8 °F - 51.8 °F 100% 30.04 in 10.0 mi NNE 8.1 mph - N/A   Mostly Cloudy
10:55 AM 52.3 °F - 52.3 °F 100% 30.04 in 10.0 mi Variable 4.6 mph - N/A   Mostly Cloudy
10:57 AM 51.8 °F - 51.8 °F 100% 30.04 in 10.0 mi NNE 4.6 mph - N/A   Overcast
11:05 AM 53.6 °F - 51.8 °F 94% 30.03 in 10.0 mi NE 6.9 mph - N/A   Mostly Cloudy
11:06 AM 53.6 °F - 51.8 °F 94% 30.03 in 10.0 mi NE 6.9 mph - N/A   Mostly Cloudy
11:11 AM 53.6 °F - 51.8 °F 94% 30.03 in 10.0 mi NE 6.9 mph - N/A   Mostly Cloudy
11:13 AM 53.6 °F - 51.8 °F 94% 30.03 in 10.0 mi NE 8.1 mph - N/A   Mostly Cloudy
11:36 AM 55.4 °F - 51.8 °F 88% 30.02 in 10.0 mi NNE 5.8 mph - N/A   Mostly Cloudy
11:38 AM 55.4 °F - 51.8 °F 88% 30.02 in 10.0 mi Variable 5.8 mph - N/A   Mostly Cloudy
11:42 AM 55.4 °F - 50.0 °F 82% 30.02 in 10.0 mi Variable 6.9 mph - N/A   Mostly Cloudy
11:45 AM 55.4 °F - 50.0 °F 82% 30.02 in 10.0 mi NE 5.8 mph - N/A   Mostly Cloudy
11:52 AM 55.4 °F - 50.0 °F 82% 30.02 in 10.0 mi Variable 5.8 mph - N/A   Scattered Clouds
11:55 AM 55.8 °F - 49.6 °F 80% 30.02 in 10.0 mi NE 8.1 mph - N/A   Scattered Clouds
12:01 PM 55.4 °F - 50.0 °F 82% 30.01 in 10.0 mi NNE 8.1 mph - N/A   Mostly Cloudy
12:36 PM 55.4 °F - 50.0 °F 82% 30.01 in 10.0 mi NNE 8.1 mph - N/A   Scattered Clouds
12:44 PM 57.2 °F - 50.0 °F 77% 30.01 in 10.0 mi NE 6.9 mph - N/A   Mostly Cloudy
12:48 PM 57.2 °F - 48.2 °F 72% 30.01 in 10.0 mi NNE 5.8 mph - N/A   Mostly Cloudy
12:55 PM 57.2 °F - 47.7 °F 70% 30.00 in 10.0 mi ENE 9.2 mph - N/A   Mostly Cloudy
1:30 PM 57.2 °F - 48.2 °F 72% 29.99 in 10.0 mi ENE 10.4 mph - N/A   Mostly Cloudy
1:38 PM 57.2 °F - 48.2 °F 72% 29.99 in 10.0 mi NE 8.1 mph - N/A   Mostly Cloudy
1:55 PM 58.6 °F - 49.3 °F 71% 29.98 in 10.0 mi ENE 9.2 mph - N/A   Mostly Cloudy
2:36 PM 59.0 °F - 48.2 °F 67% 29.97 in 10.0 mi NNE 9.2 mph - N/A   Mostly Cloudy
2:38 PM 59.0 °F - 50.0 °F 72% 29.97 in 10.0 mi NNE 9.2 mph - N/A   Mostly Cloudy
2:55 PM 57.4 °F - 49.1 °F 74% 29.97 in 10.0 mi Variable 3.5 mph - N/A   Mostly Cloudy
3:55 PM 57.9 °F - 47.8 °F 69% 29.96 in 10.0 mi North 6.9 mph - N/A   Scattered Clouds
4:55 PM 58.1 °F - 49.5 °F 73% 29.95 in 10.0 mi NNE 9.2 mph - N/A   Overcast